Location: Chatou
(48.8898°N, 2.1586°E)
Time: 16:54:38
(UTC+00:00)

Cosmos 2266 Rocket - Pass Details

Date: 03 February 2023
Orbit: 933 x 1008 km, 82.9° (Epoch: 29 March)

Event Time Altitude Azimuth Distance (km) Brightness Sun altitude
Rises 17:35:55 0° 349° (N) 3,718 7.0 -7.6°
Reaches altitude 10° 17:38:28 10° 348° (NNW) 2,755 6.3 -8.0°
Maximum altitude 17:44:45 74° 265° (W) 1,014 4.3 -9.0°
Drops below altitude 10° 17:50:53 10° 181° (S) 2,684 6.5 -10.0°
Sets 17:53:20 0° 180° (S) 3,615 7.2 -10.4°
